STARLINK-11397, 62590

Orbit data source: Space-Track

STARLINK-11397, 62590 is a payload satellite owned by SpaceX/Seattle (US) in LEO that was launched on Mon, 13 Jan 2025 UTC via an FALCON 9 launch vehicle from the Air Force Eastern Test Range (AFETR). Payload-class satellites include a variety of spacecraft equipped with specific instruments for various scientific and technological missions. These include communications satellites like Starlink; space stations such as the ISS; scientific satellites like the Hubble; Earth observation satellites from companies like Planet Labs, Umbra, and HawkEye 360; GPS; miniature CubeSats for education and research; and military/defense satellites.

Loading next visibility...
Identifier
62590, 2025-008D
Orbit
LEO
Country
Flag of USUS
Related business
Manufacturer
SpaceX/Seattle
Mission
Operational Commercial Communications
Bus & Motor
STARLINK V2MD, Unknown motor
Mass
960 kg wet, ~910 kg dry
Launch date (UTC)
2025-01-13 (2 years ago)
Launch vehicle
FALCON 9
Launch site
Air Force Eastern Test Range (AFETR)
Object type
Payload
Rocket body
Debris
Shape & HBR
Box + 2 Pan, 18.1 m
Radar Cross Section
36.964 m², Large (>1 m²)

Expand to show TLE details & history
Last TLE update: 15 hours ago

TLE from 15 hours ago
0 STARLINK-11397
1 62590U 25008D   26236.25821348  .00154563  00000-0  11848-2 0  9997
2 62590  42.9998 195.6498 0002129 263.7436  96.3189 15.70859211 93582
Epoch: 2026-08-24T06:11Z
TLE epoch observation values (Epoch: 2026-08-24T06:11:49.644Z)
Latitude
-0.00004°
Longitude
130.15041°
Altitude
356.369 km
Speed
7.697 km/s
True Right ascension
13h 02m 35s
True Declination
0° 00' 00"
Sunlit
Object was in daylight at epoch
Visualization orbit readout
Latitude
Unknown
Longitude
Unknown
Altitude
Unknown
Speed
Unknown
Apparent Right ascension
Unknown
Apparent Declination
Unknown
Sunlit
N/A
Visualization observer readout
Local Sidereal Time
12:11:06
Azimuth
Unknown
Elevation
Unknown
Doppler factor
Unknown
Orbital elements
Apogee altitude
359.856 km
Perigee altitude
356.988 km
Semi-major axis
6,736.559 km
Eccentricity
0.00021
Inclination
42.9998°
RAAN
195.6498°
Arg. of periapsis
263.7436°
True anomaly
96.34315°
Mean anomaly
96.3189°
Eccentric anomaly
96.33102°
Mean motion
3.92542 °/min
Orbital period
91.71 mins
BSTAR
0.0011848
Loading maneuver chart data...
Computing Atmospheric mass density...
Loading historical data...
Loading historical data...
Loading historical data...
Loading historical data...
Loading historical data...
Loading historical data...
Loading historical data...

Documentation

Showing up to 5 results
|